| time (UTC) | temp C | wind direction | speed KPH | gust KPH | rain 1hr cm | rain 24hr cm | rain mn cm | humidity % | barometer mb |
| 20260904133053 | 29 | 228 | 3.2 | 12.9 | 0.00 | 0.00 | 0.00 | 100 | 1017.8 |
| 20260904132546 | 29 | 235 | 3.2 | 11.3 | 0.00 | 0.00 | 0.00 | 100 | 1017.8 |
| 20260904132047 | 29 | 235 | 3.2 | 14.5 | 0.00 | 0.00 | 0.00 | 100 | 1017.7 |
| 20260904131546 | 29 | 221 | 4.8 | 14.5 | 0.00 | 0.00 | 0.00 | 100 | 1017.6 |
| 20260904131044 | 28 | 219 | 3.2 | 11.3 | 0.00 | 0.00 | 0.00 | 100 | 1017.6 |
| 20260904130541 | 28 | 212 | 3.2 | 11.3 | 0.00 | 0.00 | 0.00 | 100 | 1017.5 |
| 20260904130050 | 28 | 218 | 0.0 | 9.7 | 0.00 | 0.00 | 0.00 | 100 | 1017.5 |
| 20260904125539 | 28 | 211 | 1.6 | 8.0 | 0.00 | 0.00 | 0.00 | 100 | 1017.5 |
| 20260904125038 | 28 | 192 | 3.2 | 8.0 | 0.00 | 0.00 | 0.00 | 100 | 1017.4 |
| 20260904124538 | 27 | 167 | 3.2 | 6.4 | 0.00 | 0.00 | 0.00 | 100 | 1017.3 |
| 20260904124037 | 27 | 200 | 0.0 | 4.8 | 0.00 | 0.00 | 0.00 | 100 | 1017.4 |
| 20260904123537 | 27 | 180 | 0.0 | 4.8 | 0.00 | 0.00 | 0.00 | 100 | 1017.4 |
| 20260904123036 | 27 | 164 | 0.0 | 0.0 | 0.00 | 0.00 | 0.00 | 100 | 1017.4 |
| 20260904122536 | 26 | 157 | 0.0 | 0.0 | 0.00 | 0.00 | 0.00 | 100 | 1017.3 |
| 20260904122037 | 26 | 157 | 0.0 | 0.0 | 0.00 | 0.00 | 0.00 | 100 | 1017.2 |
| 20260904121539 | 26 | 157 | 0.0 | 0.0 | 0.00 | 0.00 | 0.00 | 100 | 1017.2 |
| 20260904121036 | 26 | 157 | 0.0 | 0.0 | 0.00 | 0.00 | 0.00 | 100 | 1017.4 |
| 20260904120539 | 26 | 157 | 0.0 | 0.0 | 0.00 | 0.00 | 0.00 | 100 | 1017.2 |
| 20260904120034 | 26 | 157 | 0.0 | 0.0 | 0.00 | 0.00 | 0.00 | 100 | 1017.1 |
| 20260904115533 | 26 | 157 | 0.0 | 0.0 | 0.00 | 0.00 | 0.00 | 100 | 1017.0 |
| 20260904115034 | 26 | 157 | 0.0 | 0.0 | 0.00 | 0.00 | 0.00 | 100 | 1017.0 |
| 20260904114534 | 26 | 157 | 0.0 | 0.0 | 0.00 | 0.00 | 0.00 | 100 | 1017.0 |
| 20260904114034 | 26 | 157 | 0.0 | 0.0 | 0.00 | 0.00 | 0.00 | 100 | 1017.0 |
| 20260904113535 | 26 | 157 | 0.0 | 0.0 | 0.00 | 0.00 | 0.00 | 100 | 1016.9 |
| 20260904113035 | 26 | 157 | 0.0 | 0.0 | 0.00 | 0.00 | 0.00 | 100 | 1016.8 |
| 20260904112533 | 26 | 157 | 0.0 | 0.0 | 0.00 | 0.00 | 0.00 | 100 | 1016.8 |
| 20260904112032 | 26 | 157 | 0.0 | 0.0 | 0.00 | 0.00 | 0.00 | 100 | 1016.8 |
| 20260904111539 | 26 | 156 | 0.0 | 0.0 | 0.00 | 0.00 | 0.00 | 100 | 1016.7 |
| 20260904111031 | 26 | 156 | 0.0 | 0.0 | 0.00 | 0.00 | 0.00 | 100 | 1016.7 |
| 20260904110530 | 26 | 156 | 0.0 | 0.0 | 0.00 | 0.00 | 0.00 | 100 | 1016.5 |
| 20260904110030 | 26 | 156 | 0.0 | 0.0 | 0.00 | 0.00 | 0.00 | 100 | 1016.5 |
| 20260904105532 | 26 | 156 | 0.0 | 0.0 | 0.00 | 0.00 | 0.00 | 100 | 1016.5 |
| 20260904105029 | 26 | 156 | 0.0 | 0.0 | 0.00 | 0.00 | 0.00 | 100 | 1016.5 |
| 20260904104534 | 26 | 156 | 0.0 | 0.0 | 0.00 | 0.00 | 0.00 | 100 | 1016.5 |
| 20260904104032 | 26 | 156 | 0.0 | 0.0 | 0.00 | 0.00 | 0.00 | 100 | 1016.5 |
| 20260904103529 | 26 | 156 | 0.0 | 0.0 | 0.00 | 0.00 | 0.00 | 100 | 1016.5 |
| 20260904103029 | 26 | 156 | 0.0 | 0.0 | 0.00 | 0.00 | 0.00 | 100 | 1016.5 |
| 20260904102535 | 26 | 156 | 0.0 | 0.0 | 0.00 | 0.00 | 0.00 | 100 | 1016.3 |
| 20260904102029 | 26 | 156 | 0.0 | 1.6 | 0.00 | 0.00 | 0.00 | 100 | 1016.3 |
| 20260904101529 | 26 | 156 | 0.0 | 1.6 | 0.00 | 0.00 | 0.00 | 100 | 1016.2 |
| 20260904101029 | 26 | 155 | 0.0 | 0.0 | 0.00 | 0.00 | 0.00 | 100 | 1016.1 |
| 20260904100529 | 26 | 155 | 0.0 | 0.0 | 0.00 | 0.00 | 0.00 | 100 | 1016.1 |
| 20260904100029 | 26 | 155 | 0.0 | 0.0 | 0.00 | 0.00 | 0.00 | 100 | 1016.0 |
| 20260904095528 | 26 | 155 | 0.0 | 3.2 | 0.00 | 0.00 | 0.00 | 100 | 1015.9 |
| 20260904095028 | 26 | 155 | 0.0 | 3.2 | 0.00 | 0.00 | 0.00 | 100 | 1016.0 |
| 20260904094527 | 26 | 155 | 0.0 | 3.2 | 0.00 | 0.00 | 0.00 | 100 | 1016.0 |
| 20260904094026 | 26 | 155 | 0.0 | 0.0 | 0.00 | 0.00 | 0.00 | 100 | 1015.9 |
| 20260904093527 | 26 | 155 | 0.0 | 0.0 | 0.00 | 0.00 | 0.00 | 100 | 1015.9 |
| 20260904093026 | 26 | 155 | 0.0 | 0.0 | 0.00 | 0.00 | 0.00 | 100 | 1016.0 |
| 20260904092528 | 26 | 155 | 0.0 | 0.0 | 0.00 | 0.00 | 0.00 | 100 | 1015.9 |
| 20260904092026 | 26 | 155 | 0.0 | 0.0 | 0.00 | 0.00 | 0.00 | 100 | 1015.9 |
| 20260904091526 | 26 | 155 | 0.0 | 0.0 | 0.00 | 0.00 | 0.00 | 100 | 1015.8 |
| 20260904091024 | 26 | 155 | 0.0 | 0.0 | 0.00 | 0.00 | 0.00 | 100 | 1015.8 |
| 20260904090526 | 26 | 155 | 0.0 | 0.0 | 0.00 | 0.00 | 0.00 | 100 | 1015.8 |
| 20260904090030 | 26 | 155 | 0.0 | 0.0 | 0.00 | 0.00 | 0.00 | 100 | 1015.8 |
| 20260904085526 | 26 | 155 | 0.0 | 0.0 | 0.00 | 0.00 | 0.00 | 100 | 1015.8 |
| 20260904085024 | 26 | 155 | 0.0 | 0.0 | 0.00 | 0.00 | 0.00 | 100 | 1015.7 |
| 20260904084525 | 26 | 155 | 0.0 | 0.0 | 0.00 | 0.00 | 0.00 | 100 | 1015.7 |
| 20260904084126 | 26 | 155 | 0.0 | 0.0 | 0.00 | 0.00 | 0.00 | 100 | 1015.8 |
| 20260904083522 | 26 | 155 | 0.0 | 0.0 | 0.00 | 0.00 | 0.00 | 100 | 1015.7 |
| 20260904083021 | 26 | 155 | 0.0 | 0.0 | 0.00 | 0.00 | 0.00 | 100 | 1015.7 |
| 20260904082522 | 26 | 155 | 0.0 | 0.0 | 0.00 | 0.00 | 0.00 | 100 | 1015.7 |
| 20260904082021 | 27 | 155 | 0.0 | 0.0 | 0.00 | 0.00 | 0.00 | 100 | 1015.8 |
| 20260904081521 | 27 | 155 | 0.0 | 3.2 | 0.00 | 0.00 | 0.00 | 100 | 1015.8 |
| 20260904081021 | 27 | 155 | 0.0 | 3.2 | 0.00 | 0.00 | 0.00 | 100 | 1015.7 |
| 20260904080521 | 27 | 155 | 0.0 | 4.8 | 0.00 | 0.00 | 0.00 | 100 | 1015.7 |
| 20260904080021 | 27 | 155 | 0.0 | 4.8 | 0.00 | 0.00 | 0.00 | 100 | 1015.6 |
| 20260904075520 | 27 | 154 | 1.6 | 4.8 | 0.00 | 0.00 | 0.00 | 100 | 1015.5 |
| 20260904075020 | 27 | 153 | 3.2 | 4.8 | 0.00 | 0.00 | 0.00 | 100 | 1015.6 |
| 20260904074530 | 27 | 153 | 0.0 | 3.2 | 0.00 | 0.00 | 0.00 | 100 | 1015.6 |
| 20260904074020 | 27 | 154 | 0.0 | 0.0 | 0.00 | 0.00 | 0.00 | 100 | 1015.4 |
| 20260904073523 | 27 | 154 | 0.0 | 0.0 | 0.00 | 0.00 | 0.00 | 100 | 1015.5 |
| 20260904073020 | 27 | 154 | 0.0 | 0.0 | 0.00 | 0.00 | 0.00 | 100 | 1015.4 |
| 20260904072520 | 27 | 154 | 0.0 | 0.0 | 0.00 | 0.00 | 0.00 | 100 | 1015.5 |
| 20260904072020 | 27 | 154 | 0.0 | 0.0 | 0.00 | 0.00 | 0.00 | 100 | 1015.6 |
| 20260904071518 | 27 | 154 | 0.0 | 0.0 | 0.00 | 0.00 | 0.00 | 100 | 1015.6 |
| 20260904071017 | 27 | 154 | 0.0 | 0.0 | 0.00 | 0.00 | 0.00 | 100 | 1015.6 |
| 20260904070520 | 27 | 154 | 0.0 | 0.0 | 0.00 | 0.00 | 0.00 | 100 | 1015.7 |
| 20260904070017 | 27 | 154 | 0.0 | 0.0 | 0.00 | 0.00 | 0.00 | 100 | 1015.7 |
| 20260904065515 | 27 | 154 | 0.0 | 0.0 | 0.00 | 0.00 | 0.00 | 100 | 1015.8 |
| 20260904065015 | 27 | 154 | 0.0 | 0.0 | 0.00 | 0.00 | 0.00 | 100 | 1015.8 |
| 20260904064515 | 27 | 154 | 0.0 | 0.0 | 0.00 | 0.00 | 0.00 | 100 | 1015.8 |
| 20260904064014 | 27 | 154 | 0.0 | 0.0 | 0.00 | 0.00 | 0.00 | 100 | 1015.8 |
| 20260904063513 | 27 | 154 | 0.0 | 0.0 | 0.00 | 0.00 | 0.00 | 100 | 1015.9 |
| 20260904063014 | 27 | 154 | 0.0 | 0.0 | 0.00 | 0.00 | 0.00 | 100 | 1016.0 |
| 20260904062512 | 27 | 154 | 0.0 | 0.0 | 0.00 | 0.00 | 0.00 | 100 | 1015.9 |
| 20260904062013 | 27 | 154 | 0.0 | 0.0 | 0.00 | 0.00 | 0.00 | 100 | 1015.9 |
| 20260904061520 | 27 | 154 | 0.0 | 0.0 | 0.00 | 0.00 | 0.00 | 100 | 1016.0 |
| 20260904061017 | 27 | 154 | 0.0 | 0.0 | 0.00 | 0.00 | 0.00 | 100 | 1016.0 |
| 20260904060511 | 27 | 154 | 0.0 | 4.8 | 0.00 | 0.00 | 0.00 | 100 | 1016.1 |
| 20260904060018 | 27 | 154 | 0.0 | 8.0 | 0.00 | 0.00 | 0.00 | 100 | 1016.2 |
| 20260904055510 | 27 | 154 | 1.6 | 11.3 | 0.00 | 0.00 | 0.00 | 100 | 1016.1 |
| 20260904055009 | 27 | 148 | 3.2 | 11.3 | 0.00 | 0.00 | 0.00 | 100 | 1016.2 |
| 20260904054514 | 27 | 152 | 3.2 | 9.7 | 0.00 | 0.00 | 0.00 | 100 | 1016.3 |
| 20260904054008 | 27 | 177 | 3.2 | 9.7 | 0.00 | 0.00 | 0.00 | 100 | 1016.3 |
| 20260904053510 | 27 | 149 | 3.2 | 9.7 | 0.00 | 0.00 | 0.00 | 100 | 1016.4 |
| 20260904053008 | 27 | 151 | 3.2 | 9.7 | 0.00 | 0.00 | 0.00 | 100 | 1016.4 |
| 20260904052512 | 27 | 155 | 3.2 | 8.0 | 0.00 | 0.00 | 0.00 | 100 | 1016.4 |
| 20260904052010 | 27 | 147 | 3.2 | 11.3 | 0.00 | 0.00 | 0.00 | 100 | 1016.4 |
| 20260904051514 | 27 | 157 | 3.2 | 12.9 | 0.00 | 0.00 | 0.00 | 100 | 1016.4 |
| 20260904051008 | 27 | 175 | 3.2 | 14.5 | 0.00 | 0.00 | 0.00 | 100 | 1016.4 |
| 20260904050508 | 27 | 172 | 3.2 | 14.5 | 0.00 | 0.00 | 0.00 | 100 | 1016.3 |
| 20260904050006 | 27 | 177 | 8.0 | 14.5 | 0.00 | 0.00 | 0.00 | 100 | 1016.4 |
| 20260904045508 | 27 | 140 | 6.4 | 12.9 | 0.00 | 0.00 | 0.00 | 100 | 1016.4 |
| 20260904045005 | 27 | 169 | 3.2 | 11.3 | 0.00 | 0.00 | 0.00 | 100 | 1016.4 |
| 20260904044505 | 27 | 136 | 4.8 | 12.9 | 0.00 | 0.00 | 0.00 | 100 | 1016.4 |
| 20260904044006 | 28 | 142 | 0.0 | 12.9 | 0.00 | 0.00 | 0.00 | 100 | 1016.4 |
| 20260904043504 | 28 | 187 | 4.8 | 12.9 | 0.00 | 0.00 | 0.00 | 100 | 1016.6 |
| 20260904043004 | 27 | 158 | 6.4 | 12.9 | 0.00 | 0.00 | 0.00 | 100 | 1016.5 |
| 20260904042504 | 27 | 138 | 4.8 | 11.3 | 0.00 | 0.00 | 0.00 | 100 | 1016.5 |
| 20260904042003 | 27 | 174 | 3.2 | 11.3 | 0.00 | 0.00 | 0.00 | 100 | 1016.4 |
| 20260904041503 | 27 | 143 | 4.8 | 14.5 | 0.00 | 0.00 | 0.00 | 100 | 1016.4 |
| 20260904041003 | 27 | 159 | 6.4 | 12.9 | 0.00 | 0.00 | 0.00 | 100 | 1016.5 |
| 20260904040502 | 27 | 159 | 3.2 | 11.3 | 0.00 | 0.00 | 0.00 | 100 | 1016.7 |
| 20260904040004 | 27 | 155 | 4.8 | 11.3 | 0.00 | 0.00 | 0.00 | 100 | 1016.5 |
| 20260904035603 | 27 | 140 | 0.0 | 6.4 | 0.00 | 0.00 | 0.00 | 100 | 1016.5 |
| 20260904035101 | 27 | 140 | 1.6 | 6.4 | 0.00 | 0.00 | 0.00 | 100 | 1016.5 |
| 20260904034559 | 27 | 142 | 0.0 | 6.4 | 0.00 | 0.00 | 0.00 | 100 | 1016.5 |
| 20260904034101 | 27 | 142 | 0.0 | 6.4 | 0.00 | 0.00 | 0.00 | 100 | 1016.6 |
| 20260904033600 | 27 | 142 | 0.0 | 11.3 | 0.00 | 0.00 | 0.00 | 100 | 1016.5 |
| 20260904033100 | 27 | 141 | 3.2 | 11.3 | 0.00 | 0.00 | 0.00 | 100 | 1016.5 |
| 20260904032559 | 27 | 155 | 1.6 | 8.0 | 0.00 | 0.00 | 0.00 | 100 | 1016.5 |
| 20260904032058 | 27 | 155 | 1.6 | 6.4 | 0.00 | 0.00 | 0.00 | 100 | 1016.7 |
| 20260904031600 | 27 | 132 | 1.6 | 6.4 | 0.00 | 0.00 | 0.00 | 100 | 1016.6 |
| 20260904031058 | 27 | 132 | 1.6 | 6.4 | 0.00 | 0.00 | 0.00 | 100 | 1016.6 |
| 20260904030559 | 27 | 129 | 3.2 | 11.3 | 0.00 | 0.00 | 0.00 | 100 | 1016.6 |
| 20260904030058 | 27 | 134 | 3.2 | 11.3 | 0.00 | 0.00 | 0.00 | 100 | 1016.7 |
| 20260904025558 | 27 | 129 | 1.6 | 8.0 | 0.00 | 0.00 | 0.00 | 100 | 1016.7 |
| 20260904025057 | 26 | 158 | 0.0 | 0.0 | 0.00 | 0.00 | 0.00 | 100 | 1016.7 |
| 20260904024558 | 26 | 159 | 0.0 | 0.0 | 0.00 | 0.00 | 0.00 | 100 | 1016.9 |
| 20260904024100 | 26 | 159 | 0.0 | 0.0 | 0.00 | 0.00 | 0.00 | 100 | 1016.8 |
| 20260904023557 | 27 | 159 | 0.0 | 1.6 | 0.00 | 0.00 | 0.00 | 100 | 1016.8 |
| 20260904023058 | 27 | 159 | 0.0 | 4.8 | 0.00 | 0.00 | 0.00 | 100 | 1016.9 |
| 20260904022557 | 27 | 159 | 1.6 | 4.8 | 0.00 | 0.00 | 0.00 | 100 | 1016.9 |
| 20260904022057 | 27 | 157 | 0.0 | 0.0 | 0.00 | 0.00 | 0.00 | 100 | 1016.9 |
| 20260904021557 | 27 | 157 | 0.0 | 0.0 | 0.00 | 0.00 | 0.00 | 100 | 1016.9 |
| 20260904021057 | 27 | 157 | 0.0 | 0.0 | 0.00 | 0.00 | 0.00 | 100 | 1016.9 |
| 20260904020557 | 27 | 156 | 0.0 | 3.2 | 0.00 | 0.00 | 0.00 | 100 | 1016.9 |
| 20260904020058 | 27 | 156 | 0.0 | 8.0 | 0.00 | 0.00 | 0.00 | 100 | 1016.9 |
| 20260904015556 | 27 | 156 | 1.6 | 9.7 | 0.00 | 0.00 | 0.00 | 100 | 1017.0 |
| 20260904015056 | 27 | 158 | 3.2 | 9.7 | 0.00 | 0.00 | 0.00 | 100 | 1017.0 |
| 20260904014606 | 27 | 146 | 3.2 | 11.3 | 0.00 | 0.00 | 0.00 | 100 | 1016.9 |
| 20260904014056 | 27 | 164 | 4.8 | 11.3 | 0.00 | 0.00 | 0.00 | 100 | 1016.9 |
| 20260904013555 | 27 | 159 | 3.2 | 9.7 | 0.00 | 0.00 | 0.00 | 100 | 1016.9 |
| 20260904013055 | 27 | 150 | 3.2 | 11.3 | 0.00 | 0.00 | 0.00 | 100 | 1016.9 |
| 20260904012556 | 27 | 162 | 4.8 | 11.3 | 0.00 | 0.00 | 0.00 | 100 | 1016.9 |
| 20260904012056 | 27 | 155 | 3.2 | 9.7 | 0.00 | 0.00 | 0.00 | 100 | 1016.8 |
| 20260904011555 | 27 | 161 | 1.6 | 8.0 | 0.00 | 0.00 | 0.00 | 100 | 1016.7 |
| 20260904011155 | 27 | 151 | 0.0 | 11.3 | 0.00 | 0.00 | 0.00 | 100 | 1016.6 |
| 20260904010554 | 26 | 159 | 4.8 | 11.3 | 0.00 | 0.00 | 0.00 | 100 | 1016.5 |
| 20260904010112 | 26 | 156 | 3.2 | 9.7 | 0.00 | 0.00 | 0.00 | 100 | 1016.5 |
| 20260904005559 | 27 | 153 | 0.0 | 8.0 | 0.00 | 0.00 | 0.00 | 100 | 1016.3 |
| 20260904005053 | 26 | 153 | 1.6 | 8.0 | 0.00 | 0.00 | 0.00 | 100 | 1016.2 |
| 20260904004554 | 27 | 149 | 0.0 | 4.8 | 0.00 | 0.00 | 0.00 | 100 | 1016.2 |
| 20260904004053 | 26 | 149 | 1.6 | 8.0 | 0.00 | 0.00 | 0.00 | 100 | 1016.2 |
| 20260904003553 | 27 | 148 | 0.0 | 11.3 | 0.00 | 0.00 | 0.00 | 100 | 1016.2 |
| 20260904003053 | 27 | 148 | 1.6 | 11.3 | 0.00 | 0.00 | 0.00 | 100 | 1016.2 |
| 20260904002655 | 27 | 150 | 3.2 | 9.7 | 0.00 | 0.00 | 0.00 | 100 | 1016.2 |
| 20260904002053 | 27 | 134 | 1.6 | 9.7 | 0.00 | 0.00 | 0.00 | 100 | 1016.0 |
| 20260904001552 | 27 | 150 | 1.6 | 12.9 | 0.00 | 0.00 | 0.00 | 100 | 1016.1 |
| 20260904001052 | 27 | 148 | 4.8 | 12.9 | 0.00 | 0.00 | 0.00 | 100 | 1016.2 |
| 20260904000552 | 27 | 154 | 1.6 | 16.1 | 0.00 | 0.00 | 0.00 | 100 | 1016.2 |
| 20260904000057 | 27 | 143 | 6.4 | 16.1 | 0.00 | 0.00 | 0.00 | 100 | 1016.3 |
| 20260903235552 | 27 | 155 | 6.4 | 16.1 | 0.00 | 0.00 | 0.00 | 100 | 1016.3 |
| 20260903235051 | 27 | 148 | 4.8 | 14.5 | 0.00 | 0.00 | 0.00 | 100 | 1016.2 |
| 20260903234551 | 27 | 140 | 4.8 | 16.1 | 0.00 | 0.00 | 0.00 | 100 | 1016.1 |
| 20260903234051 | 27 | 142 | 1.6 | 17.7 | 0.00 | 0.00 | 0.00 | 100 | 1015.9 |
| 20260903233551 | 27 | 127 | 4.8 | 17.7 | 0.00 | 0.00 | 0.00 | 100 | 1015.8 |
| 20260903233055 | 27 | 200 | 3.2 | 17.7 | 0.00 | 0.00 | 0.00 | 100 | 1015.8 |
| 20260903232551 | 27 | 118 | 6.4 | 17.7 | 0.00 | 0.00 | 0.00 | 100 | 1015.8 |
| 20260903232051 | 27 | 136 | 6.4 | 16.1 | 0.00 | 0.00 | 0.00 | 100 | 1015.7 |
| 20260903231551 | 27 | 136 | 6.4 | 16.1 | 0.00 | 0.00 | 0.00 | 100 | 1015.8 |
| 20260903231051 | 28 | 138 | 6.4 | 14.5 | 0.00 | 0.00 | 0.00 | 100 | 1015.9 |
| 20260903230550 | 28 | 148 | 4.8 | 11.3 | 0.00 | 0.00 | 0.00 | 100 | 1016.1 |
| 20260903230050 | 28 | 142 | 3.2 | 20.9 | 0.00 | 0.00 | 0.00 | 100 | 1015.9 |
| 20260903225549 | 28 | 152 | 11.3 | 25.7 | 0.00 | 0.00 | 0.00 | 100 | 1016.0 |
| 20260903225049 | 28 | 115 | 6.4 | 22.5 | 0.00 | 0.00 | 0.00 | 100 | 1016.0 |
| 20260903224549 | 28 | 155 | 4.8 | 14.5 | 0.00 | 0.00 | 0.00 | 100 | 1015.9 |
| 20260903224052 | 28 | 157 | 3.2 | 14.5 | 0.00 | 0.00 | 0.00 | 100 | 1015.8 |
| 20260903223549 | 28 | 128 | 6.4 | 14.5 | 0.00 | 0.00 | 0.00 | 100 | 1015.7 |
| 20260903223051 | 28 | 101 | 3.2 | 17.7 | 0.00 | 0.00 | 0.00 | 100 | 1015.6 |
| 20260903222549 | 28 | 163 | 8.0 | 17.7 | 0.00 | 0.00 | 0.00 | 100 | 1015.6 |
| 20260903222049 | 28 | 145 | 3.2 | 12.9 | 0.00 | 0.00 | 0.00 | 100 | 1015.7 |
| 20260903221549 | 28 | 109 | 4.8 | 20.9 | 0.00 | 0.00 | 0.00 | 100 | 1015.5 |
| 20260903221048 | 28 | 154 | 8.0 | 17.7 | 0.00 | 0.00 | 0.00 | 100 | 1015.5 |
| 20260903220548 | 28 | 167 | 6.4 | 17.7 | 0.00 | 0.00 | 0.00 | 100 | 1015.4 |
| 20260903220052 | 28 | 120 | 4.8 | 17.7 | 0.00 | 0.00 | 0.00 | 100 | 1015.6 |
| 20260903215547 | 28 | 143 | 11.3 | 17.7 | 0.00 | 0.00 | 0.00 | 100 | 1015.6 |
| 20260903215046 | 28 | 109 | 4.8 | 14.5 | 0.00 | 0.00 | 0.00 | 100 | 1015.7 |
| 20260903214548 | 28 | 184 | 4.8 | 16.1 | 0.00 | 0.00 | 0.00 | 100 | 1015.6 |
| 20260903214047 | 28 | 135 | 4.8 | 16.1 | 0.00 | 0.00 | 0.00 | 100 | 1015.6 |
| 20260903213547 | 28 | 113 | 8.0 | 20.9 | 0.00 | 0.00 | 0.00 | 100 | 1015.4 |
| 20260903213048 | 29 | 126 | 8.0 | 20.9 | 0.00 | 0.00 | 0.00 | 100 | 1015.4 |
| 20260903212546 | 29 | 99 | 8.0 | 19.3 | 0.00 | 0.00 | 0.00 | 100 | 1015.7 |
| 20260903212046 | 29 | 126 | 6.4 | 19.3 | 0.00 | 0.00 | 0.00 | 100 | 1015.8 |
| 20260903211545 | 28 | 130 | 8.0 | 19.3 | 0.00 | 0.00 | 0.00 | 100 | 1015.5 |
| 20260903211047 | 29 | 148 | 11.3 | 22.5 | 0.00 | 0.00 | 0.00 | 100 | 1015.5 |
| 20260903210545 | 29 | 110 | 6.4 | 22.5 | 0.00 | 0.00 | 0.00 | 100 | 1015.4 |
| 20260903205545 | 29 | 100 | 8.0 | 20.9 | 0.00 | 0.00 | 0.00 | 100 | 1014.6 |
| 20260903205044 | 29 | 115 | 9.7 | 19.3 | 0.00 | 0.00 | 0.00 | 100 | 1014.6 |
| 20260903204603 | 29 | 155 | 8.0 | 20.9 | 0.00 | 0.00 | 0.00 | 100 | 1014.6 |
| 20260903204046 | 29 | 132 | 6.4 | 20.9 | 0.00 | 0.00 | 0.00 | 100 | 1014.3 |
| 20260903203543 | 28 | 112 | 3.2 | 20.9 | 0.00 | 0.00 | 0.00 | 100 | 1014.5 |
| 20260903203045 | 28 | 168 | 8.0 | 20.9 | 0.00 | 0.00 | 0.00 | 100 | 1014.5 |
| 20260903202543 | 29 | 126 | 8.0 | 16.1 | 0.00 | 0.00 | 0.00 | 100 | 1014.5 |
| 20260903202043 | 29 | 122 | 4.8 | 17.7 | 0.00 | 0.00 | 0.00 | 100 | 1014.6 |
| 20260903201542 | 29 | 117 | 6.4 | 17.7 | 0.00 | 0.00 | 0.00 | 100 | 1015.1 |
| 20260903201046 | 28 | 120 | 8.0 | 17.7 | 0.00 | 0.00 | 0.00 | 100 | 1015.4 |
| 20260903200542 | 29 | 140 | 8.0 | 17.7 | 0.00 | 0.00 | 0.00 | 100 | 1015.7 |
| 20260903200051 | 29 | 134 | 6.4 | 14.5 | 0.00 | 0.00 | 0.00 | 100 | 1015.7 |
| 20260903195541 | 29 | 111 | 6.4 | 16.1 | 0.00 | 0.00 | 0.00 | 100 | 1015.4 |
| 20260903195043 | 29 | 122 | 6.4 | 17.7 | 0.00 | 0.00 | 0.00 | 100 | 1015.2 |
| 20260903194541 | 29 | 125 | 4.8 | 16.1 | 0.00 | 0.00 | 0.00 | 100 | 1015.1 |
| 20260903194042 | 29 | 77 | 4.8 | 12.9 | 0.00 | 0.00 | 0.00 | 100 | 1015.3 |
| 20260903193542 | 29 | 128 | 4.8 | 11.3 | 0.00 | 0.00 | 0.00 | 100 | 1015.4 |
| 20260903193040 | 29 | 130 | 3.2 | 12.9 | 0.00 | 0.00 | 0.00 | 100 | 1015.6 |
| 20260903192539 | 29 | 80 | 3.2 | 12.9 | 0.00 | 0.00 | 0.00 | 100 | 1015.7 |
| 20260903192042 | 28 | 157 | 3.2 | 12.9 | 0.00 | 0.00 | 0.00 | 100 | 1015.5 |
| 20260903191541 | 28 | 123 | 4.8 | 12.9 | 0.00 | 0.00 | 0.00 | 100 | 1015.6 |
| 20260903191040 | 28 | 117 | 4.8 | 12.9 | 0.00 | 0.00 | 0.00 | 100 | 1015.6 |
| 20260903190539 | 28 | 114 | 3.2 | 11.3 | 0.00 | 0.00 | 0.00 | 100 | 1015.7 |
| 20260903190040 | 28 | 76 | 0.0 | 9.7 | 0.00 | 0.00 | 0.00 | 100 | 1015.7 |
| 20260903185539 | 28 | 163 | 3.2 | 12.9 | 0.00 | 0.00 | 0.00 | 100 | 1015.6 |
| 20260903185039 | 28 | 111 | 4.8 | 16.1 | 0.00 | 0.00 | 0.00 | 100 | 1015.7 |
| 20260903184543 | 28 | 113 | 4.8 | 20.9 | 0.00 | 0.00 | 0.00 | 100 | 1015.7 |
| 20260903184040 | 28 | 71 | 8.0 | 20.9 | 0.00 | 0.00 | 0.00 | 100 | 1015.7 |
| 20260903183538 | 28 | 151 | 1.6 | 14.5 | 0.00 | 0.00 | 0.00 | 100 | 1015.8 |
| 20260903183038 | 28 | 134 | 4.8 | 12.9 | 0.00 | 0.00 | 0.00 | 100 | 1016.0 |
| 20260903182537 | 28 | 121 | 1.6 | 11.3 | 0.00 | 0.00 | 0.00 | 100 | 1016.0 |
| 20260903182037 | 28 | 101 | 3.2 | 12.9 | 0.00 | 0.00 | 0.00 | 100 | 1016.3 |
| 20260903181537 | 29 | 78 | 1.6 | 12.9 | 0.00 | 0.00 | 0.00 | 100 | 1016.3 |
| 20260903181036 | 28 | 117 | 3.2 | 19.3 | 0.00 | 0.00 | 0.00 | 100 | 1016.3 |
| 20260903180537 | 29 | 132 | 1.6 | 11.3 | 0.00 | 0.00 | 0.00 | 100 | 1016.3 |
| 20260903180038 | 28 | 136 | 1.6 | 14.5 | 0.00 | 0.00 | 0.00 | 100 | 1016.3 |
| 20260903175536 | 28 | 64 | 4.8 | 14.5 | 0.00 | 0.00 | 0.00 | 100 | 1016.3 |
| 20260903175036 | 28 | 119 | 4.8 | 16.1 | 0.00 | 0.00 | 0.00 | 100 | 1016.2 |
| 20260903174536 | 29 | 134 | 8.0 | 16.1 | 0.00 | 0.00 | 0.00 | 100 | 1016.5 |
| 20260903174036 | 29 | 137 | 3.2 | 12.9 | 0.00 | 0.00 | 0.00 | 100 | 1016.3 |
| 20260903173535 | 30 | 126 | 4.8 | 12.9 | 0.00 | 0.00 | 0.00 | 100 | 1016.2 |
| 20260903173034 | 30 | 116 | 3.2 | 12.9 | 0.00 | 0.00 | 0.00 | 100 | 1016.3 |
| 20260903172534 | 30 | 109 | 4.8 | 11.3 | 0.00 | 0.00 | 0.00 | 100 | 1016.4 |
| 20260903172034 | 29 | 127 | 4.8 | 14.5 | 0.00 | 0.00 | 0.00 | 100 | 1016.5 |
| 20260903171532 | 29 | 146 | 1.6 | 16.1 | 0.00 | 0.00 | 0.00 | 100 | 1016.6 |
| 20260903171033 | 28 | 118 | 4.8 | 17.7 | 0.00 | 0.00 | 0.00 | 100 | 1016.4 |
| 20260903170535 | 28 | 146 | 4.8 | 17.7 | 0.00 | 0.00 | 0.00 | 100 | 1016.5 |
| 20260903170036 | 28 | 105 | 4.8 | 16.1 | 0.00 | 0.00 | 0.00 | 100 | 1016.6 |
| 20260903165533 | 28 | 123 | 3.2 | 16.1 | 0.00 | 0.00 | 0.00 | 100 | 1016.6 |
| 20260903165032 | 28 | 125 | 1.6 | 12.9 | 0.00 | 0.00 | 0.00 | 100 | 1016.8 |
| 20260903164532 | 28 | 120 | 4.8 | 14.5 | 0.00 | 0.00 | 0.00 | 100 | 1016.8 |
| 20260903164032 | 28 | 105 | 4.8 | 14.5 | 0.00 | 0.00 | 0.00 | 100 | 1016.9 |
| 20260903163534 | 28 | 107 | 1.6 | 11.3 | 0.00 | 0.00 | 0.00 | 100 | 1017.0 |
| 20260903163031 | 28 | 129 | 0.0 | 12.9 | 0.00 | 0.00 | 0.00 | 100 | 1017.0 |
| 20260903162532 | 28 | 146 | 4.8 | 12.9 | 0.00 | 0.00 | 0.00 | 100 | 1017.0 |
| 20260903162032 | 29 | 119 | 4.8 | 14.5 | 0.00 | 0.00 | 0.00 | 100 | 1017.1 |
| 20260903161534 | 29 | 113 | 6.4 | 12.9 | 0.00 | 0.00 | 0.00 | 100 | 1017.1 |
| 20260903161031 | 29 | 111 | 0.0 | 8.0 | 0.00 | 0.00 | 0.00 | 100 | 1017.0 |
| 20260903160532 | 30 | 111 | 3.2 | 8.0 | 0.00 | 0.00 | 0.00 | 100 | 1017.0 |
| 20260903160053 | 29 | 138 | 1.6 | 6.4 | 0.00 | 0.00 | 0.00 | 100 | 1016.9 |
| 20260903155530 | 29 | 120 | 1.6 | 9.7 | 0.00 | 0.00 | 0.00 | 100 | 1016.9 |
| 20260903155031 | 29 | 121 | 1.6 | 9.7 | 0.00 | 0.00 | 0.00 | 100 | 1017.0 |
| 20260903154531 | 30 | 109 | 0.0 | 8.0 | 0.00 | 0.00 | 0.00 | 100 | 1017.0 |
| 20260903154030 | 30 | 128 | 3.2 | 11.3 | 0.00 | 0.00 | 0.00 | 100 | 1017.0 |
| 20260903153529 | 30 | 102 | 3.2 | 12.9 | 0.00 | 0.00 | 0.00 | 100 | 1017.1 |
| 20260903153030 | 29 | 140 | 3.2 | 12.9 | 0.00 | 0.00 | 0.00 | 100 | 1017.2 |
| 20260903152530 | 30 | 107 | 3.2 | 9.7 | 0.00 | 0.00 | 0.00 | 100 | 1017.3 |
| 20260903152030 | 30 | 82 | 1.6 | 11.3 | 0.00 | 0.00 | 0.00 | 100 | 1017.3 |
| 20260903151534 | 30 | 144 | 3.2 | 6.4 | 0.00 | 0.00 | 0.00 | 100 | 1017.3 |
| 20260903151028 | 30 | 212 | 1.6 | 12.9 | 0.00 | 0.00 | 0.00 | 100 | 1017.3 |
| 20260903150527 | 30 | 232 | 3.2 | 12.9 | 0.00 | 0.00 | 0.00 | 100 | 1017.2 |
| 20260903150030 | 30 | 224 | 3.2 | 9.7 | 0.00 | 0.00 | 0.00 | 100 | 1017.2 |
| 20260903145526 | 30 | 197 | 1.6 | 12.9 | 0.00 | 0.00 | 0.00 | 100 | 1017.2 |
| 20260903145026 | 30 | 219 | 4.8 | 12.9 | 0.00 | 0.00 | 0.00 | 100 | 1017.1 |
| 20260903144526 | 30 | 188 | 3.2 | 8.0 | 0.00 | 0.00 | 0.00 | 100 | 1017.1 |
| 20260903144024 | 30 | 197 | 4.8 | 8.0 | 0.00 | 0.00 | 0.00 | 100 | 1017.2 |
| 20260903143523 | 30 | 170 | 3.2 | 9.7 | 0.00 | 0.00 | 0.00 | 100 | 1017.1 |
| 20260903143026 | 30 | 184 | 1.6 | 9.7 | 0.00 | 0.00 | 0.00 | 100 | 1017.0 |
| 20260903142521 | 30 | 178 | 1.6 | 14.5 | 0.00 | 0.00 | 0.00 | 100 | 1017.1 |
| 20260903142019 | 30 | 162 | 4.8 | 14.5 | 0.00 | 0.00 | 0.00 | 100 | 1016.9 |
| 20260903141517 | 29 | 233 | 3.2 | 8.0 | 0.00 | 0.00 | 0.00 | 100 | 1016.9 |
| 20260903141019 | 29 | 224 | 3.2 | 8.0 | 0.00 | 0.00 | 0.00 | 100 | 1016.9 |
| 20260903140514 | 29 | 210 | 3.2 | 8.0 | 0.00 | 0.00 | 0.00 | 100 | 1016.8 |
| 20260903140013 | 29 | 181 | 3.2 | 9.7 | 0.00 | 0.00 | 0.00 | 100 | 1016.8 |
| 20260903135511 | 28 | 175 | 4.8 | 9.7 | 0.00 | 0.00 | 0.00 | 100 | 1016.7 |
| 20260903135012 | 28 | 220 | 3.2 | 9.7 | 0.00 | 0.00 | 0.00 | 100 | 1016.8 |
| 20260903134508 | 28 | 203 | 1.6 | 11.3 | 0.00 | 0.00 | 0.00 | 100 | 1016.7 |
| 20260903134011 | 28 | 221 | 3.2 | 8.0 | 0.00 | 0.00 | 0.00 | 100 | 1016.6 |
| 20260903133508 | 28 | 171 | 4.8 | 8.0 | 0.00 | 0.00 | 0.00 | 100 | 1016.7 |